Location: Helion Bumpstead
(52.0500°N, 0.4000°E)
Time: 20:40:13
(UTC+00:00)

CENTAUR R/B - Pass Details

Date: 15 November 2025
Orbit: 633 x 1548 km, 63.4° (Epoch: 14 December)

Event Time Altitude Azimuth Distance (km) Brightness Sun altitude
Exits shadow 05:27:24 17° 311° (NW) 2,798 4.4 -16.9°
Maximum altitude 05:34:03 71° 231° (SW) 1,500 3.3 -15.9°
Drops below altitude 10° 05:43:22 10° 150° (SSE) 3,707 6.1 -14.5°
Sets 05:46:29 0° 149° (SSE) 4,703 6.7 -14.0°
